Home   Weather   Santa Rosa   Past weeks
Flag for USA

Past Weather in Santa Rosa, California, USA — Yesterday and Last 2 Weeks

Now
56 °F

Sunny.


Feels Like: 56 °F
Forecast: 85 / 56 °F
Wind: No wind

Location: Santa Rosa Sonoma County Airport

Current Time: Apr 24, 2019 at 7:24:49 am

Latest Report: Apr 24, 2019 at 6:53 am


Visibility: 10 mi

Pressure: 29.91 "Hg

Humidity: 97%

Dew Point: 55 °F

Location of Santa RosaLocation

Past Weather in Santa Rosa — Graph

°F

Santa Rosa Temperature Yesterday

Maximum temperature yesterday: 92 °F (at 2:53 pm)
Minimum temperature yesterday: 53 °F (at 5:53 am)
Average temperature yesterday: 71 °F

High & Low Weather Summary for the Past Weeks

 TemperatureHumidityPressure
High92 °F (Apr 23, 2:53 pm)100% (Apr 14, 2:32 am)30.31 "Hg (Apr 14, 2:32 am)
Low44 °F (Apr 14, 2:32 am)22% (Apr 22, 1:53 pm)29.82 "Hg (Apr 19, 7:53 pm)
Average58 °F71%30.00 "Hg
* Reported Apr 9 5:53 am — Apr 24 5:53 am, Santa Rosa. Weather by CustomWeather, © 2019

Note: Actual official high and low records may vary slightly from our data, if they occured in-between our weather recording intervals... More about our weather records

Advertising

Santa Rosa Weather History for the Previous 24 Hours

Scroll right to see more
 ConditionsComfort  
Time TempWeatherWind HumidityBarometerVisibility
5:53 am
Wed, Apr 24
56 °FClear.No wind97%29.90 "Hg10 mi
4:53 am56 °FClear.No wind97%29.89 "Hg9 mi
3:53 am58 °FClear.No wind93%29.89 "Hg10 mi
2:53 am59 °FClear.No wind93%29.89 "Hg9 mi
1:53 am60 °FClear.No wind90%29.90 "Hg9 mi
12:53 am62 °FClear.No wind80%29.90 "Hg10 mi
11:53 pm
Tue, Apr 23
63 °FClear.No wind81%29.90 "Hg9 mi
10:53 pm65 °FClear.No wind76%29.90 "Hg10 mi
9:53 pm66 °FClear.3 mph73%29.90 "Hg10 mi
8:53 pm69 °FClear.No wind66%29.89 "Hg10 mi
7:53 pm75 °FSunny.5 mph58%29.87 "Hg10 mi
6:53 pm82 °FSunny.8 mph46%29.86 "Hg10 mi
5:53 pm86 °FSunny.7 mph40%29.87 "Hg10 mi
4:53 pm88 °FSunny.12 mph36%29.88 "Hg10 mi
3:53 pm92 °FScattered clouds.9 mph25%29.88 "Hg10 mi
2:53 pm92 °FScattered clouds.6 mph30%29.90 "Hg10 mi
1:53 pm90 °FScattered clouds.7 mph31%29.92 "Hg10 mi
12:53 pm89 °FPassing clouds.5 mph34%29.94 "Hg10 mi
11:53 am84 °FScattered clouds.3 mph38%29.97 "Hg10 mi
10:53 am79 °FScattered clouds.3 mph45%29.98 "Hg10 mi
9:53 am75 °FScattered clouds.6 mph50%29.98 "Hg10 mi
8:53 am71 °FPassing clouds.6 mph55%29.98 "Hg10 mi
7:53 am62 °FPassing clouds.6 mph78%29.98 "Hg10 mi
Weather by CustomWeather, © 2019

See weather overview